SNUGLITE-III

Last updated on Wed Dec 31 2025 00:02:07 GMT+0000 (Coordinated Universal Time)

1 66661U 25274M 25364.56300335 .00004379 00000+0 42379-3 0 9990 2 66661 97.7405 291.4999 0013586 215.8827 144.1481 14.93200132 5067
UTC large
Height (km)
Speed (km/s)
/
Latitude / Longitude
Inclination (degrees)
Orbital Period (minutes)
Azimuth
Elevation
Range (km)
Doppler Factor

Next 0 passes for location: London (51.5072 / 0.1276)

Sorry there are no passes over London.